113  
ASGM40 PGUM 270010  
RWRGUM  
WEATHER ROUNDUP FOR THE MARIANAS  
NATIONAL WEATHER SERVICE TIYAN GU  
1000 AM CHST WED MAY 27 2020  
 
GUZ001>004-270100-  
MARIANA ISLANDS-  
 
CITY SKY/WX TMP DP RH WIND PRES REMARKS
 
GUAM AIRPORT MOSUNNY 84 75 74 E14 30.00R HX 92  
ANDERSEN AFB MOSUNNY 84 75 74 E15 30.01R HX 92  
ROTA AIRPORT MOSUNNY 84 75 74 E14 29.97S HX 92  
TINIAN AP MOSUNNY 88 75 66 SE14 29.99S HX 97  
SAIPAN AP MOSUNNY 90 75 62 E16 30.00S HX 100  
 

 
 
 
 
CLICK HERE TO GO TO PREVIOUS BULLETINS.

The Nexlab GU Page Main Text Page